Volver al catálogo

COSMOS 2251 DEB

ActivoLEO
NORAD 33934·DEBRIS·🇷🇺 Russia

Lanzado Jun 16, 1993 desde Plesetsk Cosmodrome

Loading…

Próximos Pases (próximas 24 horas)

TLE

ActualizadoSource: Space-Track

Época: Sep 14, 2026, 12:39 UTC

1 33934U 93036EP  26257.52747323  .00001699  00000-0  35297-3 0  9992
2 33934  74.0352 294.2344 0016895 336.6621  23.3776 14.60850145927649

Sigue COSMOS 2251 DEB en tiempo real con AllMySat

Download on the App Store